Victoria University, British Columbia

6:39 AM PDT on April 23, 2017 (GMT -0700)
Victoria University

Weather History for CWYJ - November, 2013

Change the Weather History Date:

Friday, November 15, 2013

  Actual Average (CYWH) Record (CYWH)
Temperature  
Mean Temperature 43 °F -  
Max Temperature 47 °F 48 °F 57 °F (1998)
Min Temperature 39 °F 42 °F 33 °F (2011)
Degree Days  
Heating Degree Days 22    
Moisture  
Dew Point 40 °F    
Average Humidity 84    
Maximum Humidity 93    
Minimum Humidity 67    
Precipitation  
Precipitation 0.20 in - - ()
Sea Level Pressure  
Sea Level Pressure 29.70 in    
Wind  
Wind Speed 5 mph ()    
Max Wind Speed 9 mph    
Max Gust Speed 17 mph    
Averages and records for this station are not official NWS values.
T = Trace of Precipitation, MM = Missing Value Source: Averaged Metar Reports

Daily Weather History Graph

Daily Weather History Graph

Search for Another Location

Airport or City:

Trip Planner

Search our weather history database for the weather conditions in past years. The results will help you decide how hot, cold, wet, or windy it might be!

Date:

Astronomy

Nov. 15, 2013 Rise Set
Actual Time 7:21 AM PST 4:33 PM PST
Civil Twilight 6:47 AM PST 5:07 PM PST
Nautical Twilight 6:09 AM PST 5:46 PM PST
Astronomical Twilight 5:32 AM PST 6:22 PM PST
Moon 3:40 PM PST (11/15) 5:15 AM PST (11/15)
Length of Visible Light 10h 20m
Length of Day
9h 12m
Waxing Gibbous, 97% of the Moon is Illuminated
Nov 15
Waxing Gibbous
Nov 17
Full
Nov 25
Last Quarter
Dec 2
New
Dec 9
First Quarter

Hourly Weather History & Observations

Time (PST) Temp. Windchill Dew Point Humidity Pressure Visibility Wind Dir Wind Speed Gust Speed Precip Events Conditions
12:00 AM 41.2 °F - 37.2 °F 86% 30.05 in - West 2.3 mph - N/A   Unknown
1:00 AM 42.8 °F 41.1 °F 37.9 °F 83% 30.04 in - WSW 3.5 mph - N/A   Unknown
2:00 AM 43.3 °F - 38.7 °F 84% 30.01 in - WSW 2.3 mph - N/A   Unknown
3:00 AM 44.2 °F 42.7 °F 39.7 °F 84% 30.00 in - SW 3.5 mph - N/A   Unknown
4:00 AM 46 °F - 40 °F 71% 29.98 in - WSW 5.8 mph - -  
4:00 AM 45.5 °F 42.5 °F 39.6 °F 80% 29.98 in - WSW 5.8 mph - N/A   Unknown
5:00 AM 45.5 °F 42.5 °F 39.4 °F 79% 29.95 in - SW 5.8 mph - N/A   Unknown
6:00 AM 45.3 °F 41.6 °F 39.7 °F 81% 29.92 in - WSW 6.9 mph - N/A   Unknown
7:00 AM 45.5 °F 41.3 °F 40.1 °F 81% 29.90 in - WSW 8.1 mph - N/A   Unknown
8:00 AM 45.7 °F 41.5 °F 39.7 °F 80% 29.89 in - WSW 8.1 mph - N/A   Unknown
9:00 AM 45.0 °F 40.6 °F 39.9 °F 82% 29.86 in - SW 8.1 mph - N/A   Unknown
10:00 AM 45 °F - 41 °F 82% 29.86 in - SW 4.6 mph - -  
10:00 AM 44.6 °F 42.2 °F 41.4 °F 88% 29.86 in - SW 4.6 mph - 0.02 in   Unknown
11:00 AM 44.8 °F 41.0 °F 41.5 °F 88% 29.81 in - SW 6.9 mph - 0.02 in   Unknown
12:00 PM 43.5 °F 40.9 °F 40.6 °F 90% 29.77 in - South 4.6 mph - 0.05 in   Unknown
1:00 PM 43.2 °F 39.7 °F 40.6 °F 91% 29.68 in - South 5.8 mph - 0.05 in   Unknown
2:00 PM 43.7 °F 42.1 °F 40.6 °F 89% 29.63 in - SW 3.5 mph - 0.02 in   Unknown
3:00 PM 43.9 °F 39.9 °F 41.2 °F 90% 29.57 in - SSE 6.9 mph - 0.02 in   Unknown
4:00 PM 44 °F - 42 °F 89% 29.53 in - South 4.6 mph - -  
4:00 PM 44.1 °F 41.5 °F 41.9 °F 92% 29.53 in - South 4.6 mph - 0.03 in   Unknown
5:00 PM 44.4 °F 41.2 °F 42.3 °F 92% 29.45 in - South 5.8 mph - 0.02 in   Unknown
6:00 PM 44.4 °F 40.0 °F 42.6 °F 93% 29.41 in - South 8.1 mph - 0.02 in   Unknown
7:00 PM 44.6 °F 41.4 °F 42.8 °F 93% 29.37 in - South 5.8 mph - 0.04 in   Unknown
8:00 PM 46.2 °F 43.3 °F 43.2 °F 89% 29.32 in - SW 5.8 mph - N/A   Unknown
9:00 PM 45.3 °F 40.6 °F 39.4 °F 80% 29.32 in - WSW 9.2 mph - 0.01 in   Unknown
10:00 PM 46 °F - 39 °F 67% 29.35 in - WSW 8.1 mph - -  
10:00 PM 45.7 °F 41.5 °F 38.7 °F 76% 29.35 in - WSW 8.1 mph 17.3 mph N/A   Unknown
11:00 PM 45.0 °F 43.5 °F 40.1 °F 83% 29.35 in - West 3.5 mph - N/A   Unknown